Regional Weather Roundup
Issued by NWS

Home | Current Version | Previous Version | Graphics & Text | Print | Product List | Glossary Off
Versions: 1 2 3 4 5 6 7 8 9 10 11 12 13 14 15 16 17 18 19 20 21 22 23 24 25 26 27 28 29 30 31 32 33 34 35 36 37 38 39 40 41 42 43 44 45 46 47 48 49 50

000
ASUS43 KLSX 310907
RWRMO

WEATHER SUMMARY FOR MISSOURI
NATIONAL WEATHER SERVICE SPRINGFIELD MO
400 AM CDT MON AUG 31 2015

NOTE: "FAIR" INDICATES FEW OR NO CLOUDS BELOW 12,000 FEET WITH NO
       SIGNIFICANT WEATHER AND/OR OBSTRUCTIONS TO VISIBILITY.
       CURRENT SKY AND/OR WEATHER CONDITIONS ARE NOT AVAILABLE FOR
       CHILLICOTHE AND FARMINGTON.

MOZ001>031-035>038-043-044-053-054-311000-
...NORTHERN AND WESTERN MISSOURI...

CITY           SKY/WX    TMP DP  RH WIND       PRES   REMARKS
KANSAS CTY INT PTCLDY    72  69  90 SE7       29.96S
KANSAS C DTWN  CLEAR     75  71  87 S6        29.95S
LEE`S SUMMIT   CLEAR     73  69  87 VRB5      29.97S
ST JOSEPH      MOCLDY    66  65  96 CALM      29.95S FOG
CHILLICOTHE      N/A     71  69  93 CALM      29.98S
KIRKSVILLE     CLEAR     68  65  90 SE5       30.00S FOG

$$
MOZ066>068-077>081-088>096-101>105-311000-
...SOUTHWEST MISSOURI...

CITY           SKY/WX    TMP DP  RH WIND       PRES   REMARKS
SPRINGFIELD    CLEAR     72  67  84 SE9       30.01R
JOPLIN         CLEAR     71  68  90 S6        29.98R

$$
MOZ032>034-039>042-045>050-055>058-069>072-311000-
...CENTRAL MISSOURI...

CITY           SKY/WX    TMP DP  RH WIND       PRES   REMARKS
COLUMBIA       CLEAR     71  70  96 S7        30.00S FOG
JEFFERSON CITY CLEAR     70  69  97 SE3       29.99S FOG
ROLLA          CLEAR     71  68  90 S8        30.01S
SEDALIA        CLEAR     71  68  90 S7        29.99S FOG
WHITEMAN AFB   CLEAR     71  71  99 S3        29.96F
WARRENSBURG    CLEAR     72  68  88 CALM      29.96S
OSAGE BEACH    CLEAR     72  66  83 S6        30.01R

$$
MOZ051-052-059>065-311000-
...EAST CENTRAL MISSOURI...

CITY           SKY/WX    TMP DP  RH WIND       PRES   REMARKS
ST LOUIS INTL  PTCLDY    76  70  82 S6        30.02R
SPIRIT OF STL  CLEAR     70  70 100 CALM      30.00R FOG
ST CHARLES     CLEAR     71  70  96 E5        30.00R FOG

$$
MOZ072>076-082>087-097>100-106>115-311000-
...SOUTH CENTRAL AND SOUTHEAST MISSOURI...

CITY           SKY/WX    TMP DP  RH WIND       PRES   REMARKS
CAPE GIRARDEAU PTCLDY    67  66  97 SE3       30.04S
FARMINGTON     PTCLDY    70  68  94 S6        30.07R
POPLAR BLUFF   CLOUDY    68  67  96 CALM      30.03R FOG
WEST PLAINS    CLEAR     70  67  90 CALM      30.05S

$$


USA.gov is the U.S. government's official web portal to all federal, state and local government web resources and services.